Change the Weather History Date:

Thursday, October 25, 2012

  Actual Average Record
Temperature  
Mean Temperature 69 °F -  
Max Temperature 82 °F 75 °F 85 °F (2010)
Min Temperature 56 °F 53 °F 39 °F (1999)
Cooling Degree Days 4    
Growing Degree Days 19 (Base 50)    
Moisture  
Dew Point 60 °F    
Average Humidity 79    
Maximum Humidity 100    
Minimum Humidity 48    
Precipitation  
Precipitation 0.00 in - - ()
Sea Level Pressure  
Sea Level Pressure 30.02 in    
Wind  
Wind Speed 2 mph (NE)    
Max Wind Speed 10 mph    
Max Gust Speed -    
Visibility 9 miles    
Events      
Averages and records for this station are not official NWS values.
T = Trace of Precipitation, MM = Missing Value Source: NWS Daily Summary

Daily Weather History Graph

Daily Weather History Graph

Search for Another Location

Airport or City:

Trip Planner

Search our weather history database for the weather conditions in past years. The results will help you decide how hot, cold, wet, or windy it might be!

Date:

Astronomy

Oct. 25, 2012 Rise Set
Actual Time 6:57 AM CDT 6:01 PM CDT
Civil Twilight 6:32 AM CDT 6:26 PM CDT
Nautical Twilight 6:03 AM CDT 6:55 PM CDT
Astronomical Twilight 5:34 AM CDT 7:23 PM CDT
Moon 3:36 PM CDT (10/25) 3:05 AM CDT (10/25)
Length of Visible Light 11h 54m
Length of Day
11h 03m
Waxing Gibbous, 84% of the Moon is Illuminated
Oct 25
Waxing Gibbous
Oct 29
Full
Nov 6
Last Quarter
Nov 13
New
Nov 20
First Quarter

Hourly Weather History & Observations

Time (CDT) Temp. Heat Index Dew Point Humidity Pressure Visibility Wind Dir Wind Speed Gust Speed Precip Events Conditions
12:19 AM 59.0 °F - 59.0 °F 100% 30.06 in 2.5 mi Calm Calm - N/A   Clear
12:38 AM 59.0 °F - 59.0 °F 100% 30.05 in 3.0 mi Calm Calm - N/A   Clear
12:55 AM 60.1 °F - 59.0 °F 96% 30.05 in 10.0 mi North 3.5 mph - N/A   Clear
1:55 AM 60.4 °F - 59.2 °F 96% 30.03 in 10.0 mi Calm Calm - N/A   Clear
2:55 AM 58.3 °F - 57.4 °F 97% 30.02 in 9.0 mi Calm Calm - N/A   Clear
3:55 AM 57.9 °F - 57.0 °F 97% 30.02 in 9.0 mi Calm Calm - N/A   Clear
4:55 AM 56.8 °F - 55.8 °F 96% 30.03 in 8.0 mi Calm Calm - N/A   Clear
5:55 AM 57.9 °F - 55.0 °F 90% 30.04 in 10.0 mi Calm Calm - N/A   Clear
6:55 AM 57.9 °F - 55.8 °F 92% 30.05 in 10.0 mi NE 3.5 mph - N/A   Clear
7:55 AM 60.4 °F - 57.2 °F 89% 30.06 in 10.0 mi NNE 4.6 mph - N/A   Clear
8:55 AM 64.8 °F - 58.8 °F 81% 30.07 in 10.0 mi ENE 4.6 mph - N/A   Clear
9:55 AM 71.8 °F - 61.0 °F 69% 30.07 in 10.0 mi NE 5.8 mph - N/A   Clear
10:55 AM 77.4 °F - 62.1 °F 59% 30.06 in 10.0 mi East 8.1 mph - N/A   Clear
11:55 AM 80.2 °F 81.4 °F 62.4 °F 54% 30.04 in 10.0 mi East 10.4 mph - N/A   Partly Cloudy
12:55 PM 82.6 °F 83.1 °F 61.3 °F 48% 30.01 in 10.0 mi Variable 4.6 mph - N/A   Mostly Cloudy
1:55 PM 80.1 °F 81.0 °F 60.3 °F 51% 29.99 in 10.0 mi Calm Calm - N/A   Partly Cloudy
2:55 PM 80.6 °F 81.6 °F 61.7 °F 52% 29.97 in 10.0 mi NNE 4.6 mph - N/A   Mostly Cloudy
3:55 PM 81.1 °F 81.8 °F 60.4 °F 49% 29.96 in 10.0 mi Calm Calm - N/A   Clear
4:55 PM 80.6 °F 81.4 °F 60.3 °F 50% 29.96 in 10.0 mi ENE 3.5 mph - N/A   Mostly Cloudy
5:55 PM 77.5 °F - 61.5 °F 58% 29.98 in 10.0 mi NNE 3.5 mph - N/A   Partly Cloudy
6:55 PM 69.4 °F - 63.1 °F 80% 29.99 in 10.0 mi North 3.5 mph - N/A   Clear
7:55 PM 68.0 °F - 63.5 °F 85% 29.99 in 10.0 mi Calm Calm - N/A   Clear
8:55 PM 66.2 °F - 63.7 °F 92% 29.99 in 10.0 mi Calm Calm - N/A   Clear
9:55 PM 64.9 °F - 62.8 °F 93% 30.00 in 10.0 mi Calm Calm - N/A   Clear
10:55 PM 62.4 °F - 60.8 °F 94% 29.99 in 10.0 mi Calm Calm - N/A   Partly Cloudy
11:55 PM 63.1 °F - 61.5 °F 94% 29.98 in 10.0 mi NW 3.5 mph - N/A   Clear